Station 46082 (LLNR 1097) - Cape Suckling - 35 NM SE of Kayak Is, AK Image indicating link to RSS feed of recent meteorological observations for station 46082


Conditions at 46082 as of
(4:50 am AKDT)
1250 GMT on 04/19/2024:
     

Click on the graph icon in the table below to see a time series plot of the last five days of that observation.

5-day plot - Wind Direction Wind Direction (WDIR): E ( 90 deg true )
5-day plot - Wind Speed Wind Speed (WSPD): 13.6 kts
5-day plot - Wind Gust Wind Gust (GST): 15.5 kts
5-day plot - Wave Height Wave Height (WVHT): 8.5 ft
5-day plot - Dominant Wave Period Dominant Wave Period (DPD): 11 sec
5-day plot - Average Wave Period Average Period (APD): 7.3 sec
5-day plot - Mean Wave Direction Mean Wave Direction (MWD): S ( 177 deg true )
5-day plot - Atmospheric Pressure Atmospheric Pressure (PRES):30.27 in
5-day plot - Air Temperature Air Temperature (ATMP): 45.3 °F
5-day plot - Water Temperature Water Temperature (WTMP): 43.0 °F
5-day plot - Dew Point Dew Point (DEWP): 37.4 °F
5-day plot - Wind Chill Wind Chill (CHILL): 38.5 °F
5-day plot - Wind Speed at 10 Meters Wind Speed at 10 meters (WSPD10M): 13.6 kts
5-day plot - Wind Speed at 20 Meters Wind Speed at 20 meters (WSPD20M): 15.5 kts
5-day plot -  Wind Speed, Wind Gust and Atmospheric Pressure Combined plot of Wind Speed, Gust, and Air Pressure
Supplemental Measurements
Highest 1-minute Wind Speed
Time (AKDT)5-day plot - 1-Minute Wind Speed WSPD 5-day plot - 1-Minute Wind Direction WDIR
4:41 am 13.6 kts-
Previous observations
TIME
(AKDT)
5-day plot - Wind Direction
WDIR
 
5-day plot - Wind Speed
WSPD
kts
5-day plot - Wind Gust
GST
kts
5-day plot - Wave Height
WVHT
ft
5-day plot - Dominant Wave Period
DPD
sec
5-day plot - Average Wave Period
APD
sec
5-day plot - Mean Wave Direction
MWD
 
5-day plot - Atmospheric Pressure
PRES
in
5-day plot - Pressure Tendency
PTDY
in
5-day plot - Air Temperature
ATMP
°F
5-day plot - Water Temperature
WTMP
°F
5-day plot - Dew Point
DEWP
°F
5-day plot - Salinity
SAL
psu
5-day plot - Visibility
VIS
nmi
5-day plot - Tide (above MLLW)
TIDE
ft
2024-04-19 04:40 am E 13.6 17.5 8.5-7.3 S30.28- 45.5 43.0 37.2---
2024-04-19 04:30 am E 13.6 15.5----30.28- 45.5 43.0 37.0---
2024-04-19 04:20 am E 13.6 17.5 8.9 117.5 S30.28- 45.5 43.0 37.0---
2024-04-19 04:10 am E 13.6 17.5 8.9-7.5 S30.29- 45.5 43.0 37.4---
2024-04-19 04:00 am E 13.6 17.5----30.29-0.03 45.1 43.0 37.8---
2024-04-19 03:50 am E 13.6 17.5 9.2 117.8 S30.29- 45.0 43.0 38.7---
2024-04-19 03:40 am E 11.7 15.5----30.29- 44.6 43.0 39.4---
2024-04-19 03:30 am E 11.7 13.6----30.30- 44.6 43.0 39.6---
2024-04-19 03:20 am E 9.7 13.6 8.9 117.7 S30.30- 44.8 43.0 39.7---
2024-04-19 03:10 am E 9.7 13.6 8.9-7.7 S30.30- 44.8 43.0 39.9---
2024-04-19 03:00 am E 9.7 11.7----30.30-0.02 44.6 43.0 40.1---
2024-04-19 02:50 am E 7.8 11.7 8.5 117.6 S30.30- 44.4 43.0 40.5---
2024-04-19 02:40 am E 7.8 9.7----30.30- 44.1 43.2 40.6---
2024-04-19 02:30 amENE 7.8 9.7----30.31- 44.1 43.2 40.6---
2024-04-19 02:20 amENE 7.8 11.7 9.2 117.8 S30.31- 44.2 43.2 40.6---
2024-04-19 02:10 am E 7.8 11.7 9.2-7.8 S30.31- 44.2 43.2 40.5---
2024-04-19 02:00 am E 9.7 11.7----30.31-0.02 44.4 43.2 40.6---
2024-04-19 01:50 amENE 9.7 13.6 9.8 118.0 S30.31- 44.4 43.2 40.5---
2024-04-19 01:40 amENE 9.7 13.6 9.8-8.0 S30.32- 44.4 43.3 40.5---
2024-04-19 01:30 amENE 9.7 13.6----30.32- 44.2 43.3 40.5---
2024-04-19 01:20 amENE 9.7 13.6 9.2 117.6SSE30.32- 44.2 43.5 40.5---
2024-04-19 01:10 amENE 9.7 13.6 9.2-7.6SSE30.32- 44.6 43.5 40.3---
2024-04-19 01:00 am E 11.7 15.5----30.32-0.02 45.0 43.5 39.7---
2024-04-19 12:50 am E 11.7 15.5 9.2 117.6 S30.32- 45.1 43.5 39.4---
2024-04-19 12:40 am E 11.7 15.5 9.2-7.6 S30.32- 45.1 43.5 39.2---
2024-04-19 12:30 am E 11.7 15.5----30.32- 45.3 43.5 39.4---
2024-04-19 12:20 am E 13.6 17.5 9.5 117.5 S30.32- 45.5 43.5 39.0---
2024-04-19 12:10 am E 13.6 17.5 9.5-7.5 S30.32- 45.7 43.5 38.7---
2024-04-19 12:00 am E 13.6 17.5----30.32-0.02 45.9 43.5 38.3---
2024-04-18 11:50 pm E 13.6 17.5 8.5 117.5 S30.32- 46.2 43.5 37.9---
2024-04-18 11:40 pm E 13.6 17.5----30.32- 46.4 43.5 37.4---
2024-04-18 11:30 pm E 13.6 17.5----30.33- 46.8 43.5 37.2---
2024-04-18 11:20 pm E 13.6 17.5 9.5 117.8 S30.33- 46.4 43.5 37.4---
2024-04-18 11:10 pm E 13.6 17.5 9.5-7.8 S30.33- 45.7 43.5 38.7---
2024-04-18 11:00 pm E 11.7 15.5----30.33-0.02 45.3 43.5 39.0---
2024-04-18 10:50 pm E 11.7 15.5 9.2 117.7SSE30.34- 45.3 43.5 39.2---
2024-04-18 10:40 pm E 11.7 13.6----30.34- 45.1 43.5 39.7---
2024-04-18 10:30 pm E 11.7 15.5----30.34- 45.3 43.5 39.2---
2024-04-18 10:20 pm E 11.7 15.5 10.8 118.3 S30.34- 45.5 43.5 39.0---
2024-04-18 10:10 pm E 11.7 15.5 10.8-8.3 S30.34- 45.1 43.5 39.4---
2024-04-18 10:00 pm E 11.7 13.6----30.34-0.02 45.1 43.5 39.6---
2024-04-18 09:50 pm E 11.7 15.5 9.2 117.4 S30.34- 45.3 43.7 39.4---
2024-04-18 09:40 pm E 13.6 15.5----30.35- 45.5 43.5 38.8---
2024-04-18 09:30 pm E 13.6 15.5----30.34- 45.7 43.5 38.7---
2024-04-18 09:20 pm E 13.6 15.5 10.2 117.7 S30.34- 45.7 43.5 38.8---
2024-04-18 09:10 pm E 13.6 15.5 10.2-7.7 S30.35- 45.7 43.5 38.8---
2024-04-18 09:00 pm E 13.6 15.5----30.35-0.04 45.7 43.5 38.7---
2024-04-18 08:50 pm E 13.6 15.5 9.8 117.7SSE30.35- 45.7 43.5 38.7---
2024-04-18 08:40 pm E 11.7 15.5 9.8-7.7SSE30.35- 45.7 43.5 38.7---
2024-04-18 08:30 pm E 13.6 15.5----30.35- 45.9 43.5 38.8---
2024-04-18 08:20 pm E 13.6 15.5 10.2 117.7SSE30.35- 45.9 43.5 38.8---
2024-04-18 08:10 pm E 13.6 15.5 10.2-7.7SSE30.35- 45.9 43.5 38.8---
2024-04-18 08:00 pm E 13.6 15.5----30.35-0.06 45.9 43.5 38.7---
2024-04-18 07:50 pm E 13.6 17.5 9.8 127.5 S30.35- 45.9 43.5 38.8---
2024-04-18 07:40 pm E 13.6 17.5----30.36- 45.7 43.5 38.8---
2024-04-18 07:30 pm E 13.6 17.5----30.36- 45.7 43.5 39.2---
2024-04-18 07:20 pm E 13.6 17.5 10.5 117.7 S30.36- 45.7 43.5 39.2---
2024-04-18 07:10 pm E 13.6 17.5 10.5-7.7 S30.36- 45.5 43.5 39.4---
2024-04-18 07:00 pm E 13.6 17.5----30.37-0.06 45.7 43.7 39.4---
2024-04-18 06:50 pm E 13.6 17.5 9.8 117.5 S30.37- 45.7 43.7 39.6---
2024-04-18 06:40 pm E 13.6 17.5----30.37- 45.7 43.7 39.4---
2024-04-18 06:30 pm E 13.6 17.5----30.38- 45.7 43.9 39.4---
2024-04-18 06:20 pm E 13.6 17.5 10.2 117.5 S30.38- 45.7 43.9 39.6---
2024-04-18 06:10 pm E 13.6 17.5 10.2-7.5 S30.38- 45.5 43.9 39.6---
2024-04-18 06:00 pm E 15.5 19.4----30.39-0.05 45.5 43.9 39.7---
2024-04-18 05:50 pm E 15.5 19.4 9.5 117.2SSE30.39- 45.3 43.7 39.7---
2024-04-18 05:40 pm E 15.5 19.4----30.39- 45.5 43.7 39.7---
2024-04-18 05:30 pm E 15.5 19.4----30.40- 45.5 43.7 39.6---
2024-04-18 05:20 pm E 15.5 19.4 9.2 117.0SSE30.40- 45.5 43.7 39.6---
2024-04-18 05:10 pm E 15.5 19.4 9.2-7.0SSE30.41- 45.5 43.7 39.6---
2024-04-18 05:00 pm E 15.5 19.4----30.41-0.03 45.5 43.7 39.2---
2024-04-18 04:50 pm E 15.5 19.4 9.8 117.2 S30.42- 45.7 43.7 39.2---
2024-04-18 04:40 pm E 15.5 19.4----30.42- 45.7 43.7 38.8---
2024-04-18 04:30 pm E 15.5 19.4----30.42- 45.7 43.7 38.7---
2024-04-18 04:20 pm E 15.5 21.4 9.8 107.1 S30.42- 45.9 43.7 38.7---
2024-04-18 04:10 pm E 15.5 19.4 9.8-7.1 S30.42- 45.9 43.7 38.5---
2024-04-18 04:00 pm E 15.5 19.4----30.43-0.01 45.9 43.7 38.3---
2024-04-18 03:50 pm E 15.5 19.4 10.5 117.1 S30.43- 45.9 43.7 38.5---
2024-04-18 03:40 pm E 15.5 19.4----30.43- 45.9 43.7 38.7---
2024-04-18 03:10 pm E 17.5 21.4 9.2-6.8SSW30.44- 45.9 43.7 38.3---
2024-04-18 03:00 pm E 17.5 21.4----30.44+0.00 45.9 43.7 38.3---
2024-04-18 02:50 pm E 17.5 21.4 10.5 117.3 S30.44- 45.9 43.7 38.1---
2024-04-18 02:40 pm E 17.5 21.4----30.44- 45.9 43.7 37.9---
2024-04-18 02:30 pm E 17.5 21.4----30.44- 45.9 43.7 37.8---
2024-04-18 02:20 pm E 17.5 21.4 10.5 87.1 S30.44- 46.0 43.7 37.4---
2024-04-18 02:10 pm E 17.5 21.4 10.5-7.1 S30.44- 46.0 43.7 37.0---
2024-04-18 02:00 pm E 17.5 21.4----30.44+0.00 46.0 43.7 36.9---
2024-04-18 01:50 pm E 17.5 21.4 10.5 97.1SSE30.44- 46.0 43.7 37.2---
2024-04-18 01:40 pm E 17.5 21.4 10.5-7.1SSE30.44- 46.0 43.7 37.0---
2024-04-18 01:30 pm E 17.5 23.3----30.44- 45.9 43.7 37.0---
2024-04-18 01:20 pm E 17.5 23.3 9.8 116.9 S30.44- 45.9 43.7 36.7---
2024-04-18 01:10 pm E 17.5 21.4 9.8-6.9 S30.44- 45.9 43.7 36.7---
2024-04-18 01:00 pm E 17.5 21.4----30.44+0.00 45.9 43.7 36.5---
2024-04-18 12:50 pm E 17.5 21.4 10.2 117.1 S30.44- 45.9 43.7 36.7---
2024-04-18 12:40 pm E 17.5 23.3----30.44- 45.9 43.5 36.7---
2024-04-18 12:30 pm E 17.5 21.4----30.44- 45.9 43.7 36.9---
2024-04-18 12:20 pm E 17.5 21.4 11.5 127.6 S30.44- 45.9 43.7 36.9---
2024-04-18 12:10 pm E 17.5 21.4 11.5-7.6 S30.44- 45.7 43.5 36.9---
2024-04-18 12:00 pm E 17.5 21.4----30.45+0.00 45.7 43.7 36.9---
2024-04-18 11:50 am E 17.5 21.4 10.8 127.3 S30.45- 45.7 43.5 36.9---
2024-04-18 11:40 am E 15.5 21.4----30.45- 45.7 43.5 36.7---
2024-04-18 11:30 am E 15.5 19.4----30.45- 45.9 43.5 36.7---
2024-04-18 11:20 am E 17.5 21.4 11.5 117.4 S30.45- 45.9 43.5 36.5---
2024-04-18 11:10 am E 17.5 23.3 11.5-7.4 S30.45- 46.0 43.5 36.3---
2024-04-18 11:00 am E 17.5 21.4----30.45+0.00 45.7 43.5 36.9---
2024-04-18 10:50 am E 15.5 19.4 12.1 127.7 S30.45- 45.7 43.5 37.0---
2024-04-18 10:40 am E 15.5 21.4 12.1-7.7 S30.45- 45.7 43.5 37.0---
2024-04-18 10:30 am E 15.5 21.4----30.44- 45.7 43.5 36.7---
2024-04-18 10:20 am E 17.5 21.4 11.2 117.6 S30.44- 45.9 43.5 36.3---
2024-04-18 10:10 am E 17.5 21.4 11.2-7.6 S30.44- 45.9 43.5 36.5---
2024-04-18 10:00 am E 17.5 21.4----30.44-0.01 45.9 43.5 36.3---
2024-04-18 09:50 am E 17.5 21.4 10.8 107.2 S30.44- 45.9 43.5 36.5---
2024-04-18 09:40 am E 15.5 21.4----30.44- 45.7 43.5 36.3---
2024-04-18 09:30 am E 17.5 21.4----30.44- 45.7 43.5 36.1---
2024-04-18 09:20 am E 17.5 23.3 11.5 117.5 S30.44- 45.7 43.5 36.1---
2024-04-18 09:10 am E 17.5 23.3 11.5-7.5 S30.44- 45.7 43.5 36.1---
2024-04-18 09:00 am E 17.5 23.3----30.44-0.01 45.5 43.5 35.8---
2024-04-18 08:50 am E 19.4 23.3 11.5 127.5 S30.44- 45.7 43.5 35.6---
2024-04-18 08:40 am E 17.5 23.3 11.5-7.5 S30.44- 45.5 43.5 35.6---
2024-04-18 08:30 am E 17.5 23.3----30.44- 45.5 43.5 35.6---
2024-04-18 08:20 am E 17.5 23.3 12.1 127.9 S30.44- 45.5 43.5 35.6---
2024-04-18 08:10 am E 17.5 23.3 12.1-7.9 S30.44- 45.3 43.5 36.0---
2024-04-18 08:00 am E 17.5 21.4----30.44-0.02 45.1 43.5 36.0---
2024-04-18 07:50 am E 17.5 23.3 12.1 117.6 S30.45- 45.0 43.5 36.1---
2024-04-18 07:40 am E 17.5 21.4----30.45- 45.0 43.5 36.5---
2024-04-18 07:30 am E 17.5 21.4----30.45- 44.8 43.5 36.9---
2024-04-18 07:20 am E 17.5 21.4 11.5 117.4 S30.45- 44.8 43.5 36.9---
2024-04-18 07:10 am E 17.5 21.4 11.5-7.4 S30.45- 44.8 43.5 37.2---
2024-04-18 07:00 am E 17.5 21.4----30.45-0.02 44.6 43.5 36.9---
2024-04-18 06:50 am E 17.5 23.3 11.2 127.3 S30.45- 44.6 43.5 36.9---
2024-04-18 06:40 am E 17.5 23.3----30.45- 44.6 43.5 37.0---
2024-04-18 06:30 am E 19.4 23.3----30.46- 44.4 43.5 37.0---
2024-04-18 06:20 am E 19.4 23.3 11.5 117.4 S30.45- 44.4 43.5 37.2---
2024-04-18 06:10 am E 17.5 23.3 11.5-7.4 S30.46- 44.4 43.5 37.6---
2024-04-18 06:00 am E 17.5 21.4----30.46-0.01 44.4 43.5 37.8---
2024-04-18 05:50 am E 19.4 23.3 12.5 127.6 S30.46- 44.6 43.5 37.9---
2024-04-18 05:40 am E 19.4 25.3----30.46- 44.6 43.5 37.6---
2024-04-18 05:30 am E 19.4 25.3----30.46- 44.6 43.5 37.9---
2024-04-18 05:20 am E 19.4 23.3 11.2 117.3 S30.46- 44.6 43.5 37.9---
2024-04-18 05:10 am E 19.4 23.3 11.2-7.3 S30.46- 44.6 43.5 37.9---
2024-04-18 05:00 am E 19.4 25.3----30.47+0.00 44.6 43.5 37.8---
2024-04-18 04:50 am E 19.4 25.3 11.5 127.3 S30.46- 44.8 43.5 37.9---

Detailed Wave Summary
for 46082 as of (4:40 am AKDT)
1240 GMT on 04/19/2024:

These wave data are displayed in rounded times.

     

Click on the graph icon in the table below to see a time series plot of the last five days of that observation.

5-day plot - Significant Wave Height Significant Wave Height (WVHT): 8.5 ft
5-day plot - Swell Height Swell Height (SwH): 7.5 ft
5-day plot - Swell Period Swell Period (SwP): 10.8 sec
5-day plot - Swell Direction Swell Direction (SwD): S
5-day plot - Wind Wave Height Wind Wave Height (WWH): 3.6 ft
5-day plot - Wind Wave Period Wind Wave Period (WWP): 4.3 sec
5-day plot - Wind Wave Direction Wind Wave Direction (WWD):ESE
5-day plot - Wave Steepness Wave Steepness (STEEPNESS): SWELL
5-day plot - Average Wave Period Average Wave Period (APD): 7.3 sec
Previous observations
TIME
(AKDT)
5-day plot - Wave Height
WVHT
ft
5-day plot - Swell Height
SwH
ft
5-day plot - Swell Period
SwP
sec
5-day plot - Swell Direction
SwD
 
5-day plot - Wind Wave Height
WWH
ft
5-day plot - Wind Wave Period
WWP
sec
5-day plot - Wind Wave Direction
WWD
 
5-day plot - Wave Steepness
STEEPNESS
 
5-day plot - Average Wave Period
APD
sec
2024-04-19 04:10 am 8.9 7.9 11.4 S 3.9 5.9 SSE SWELL 7.5
2024-04-19 03:40 am 9.2 8.9 11.4 S 3.0 5.3 SSE SWELL 7.8
2024-04-19 03:10 am 8.9 8.5 10.8 S 2.6 4.8 SSE AVERAGE 7.7
2024-04-19 02:40 am 8.5 8.5 10.8 S 1.6 3.6 SE AVERAGE 7.6
2024-04-19 02:10 am 9.2 8.9 11.4 S 1.6 4.0 SE SWELL 7.8
2024-04-19 01:40 am 9.8 9.5 10.8 S 2.3 4.8 SSE AVERAGE 8.0
2024-04-19 01:10 am 9.2 8.9 10.8SSE 2.6 5.0 SSE AVERAGE 7.6
2024-04-19 12:40 am 9.2 8.5 11.4 S 3.3 5.3 SSE SWELL 7.6
2024-04-19 12:10 am 9.5 8.5 10.8 S 3.9 5.0 SE AVERAGE 7.5
2024-04-18 11:40 pm 8.5 7.9 10.8 S 3.9 5.9 SSE AVERAGE 7.5
2024-04-18 11:10 pm 9.5 8.9 11.4 S 3.3 5.0 SSE SWELL 7.8
2024-04-18 10:40 pm 9.2 8.9 10.8SSE 3.0 5.0 SSE AVERAGE 7.7
2024-04-18 10:10 pm 10.8 10.5 11.4 S 3.0 5.6 SSE AVERAGE 8.3
2024-04-18 09:40 pm 9.2 8.5 10.8 S 3.6 5.9 SSE AVERAGE 7.4
2024-04-18 09:10 pm 10.2 9.2 11.4 S 3.9 4.8 SSE AVERAGE 7.7
2024-04-18 08:40 pm 9.8 9.2 10.8SSE 3.9 5.6 SSE AVERAGE 7.7
2024-04-18 08:10 pm 10.2 9.5 10.8SSE 3.9 5.3 SE AVERAGE 7.7
2024-04-18 07:40 pm 9.8 8.5 12.1 S 4.3 6.2 SSE SWELL 7.5
2024-04-18 07:10 pm 10.5 9.5 10.8 S 4.3 6.2 SSE AVERAGE 7.7
2024-04-18 06:40 pm 9.8 8.9 10.8 S 4.3 6.7 SSE AVERAGE 7.5
2024-04-18 06:10 pm 10.2 9.2 11.4 S 4.6 6.2 SSE SWELL 7.5
2024-04-18 05:40 pm 9.5 7.9 11.4SSE 5.2 5.9 SSE SWELL 7.2
2024-04-18 05:10 pm 9.2 7.5 10.8SSE 5.2 6.7 SSE AVERAGE 7.0
2024-04-18 04:40 pm 9.8 7.9 10.8 S 5.9 6.7 SSE AVERAGE 7.2
2024-04-18 04:10 pm 9.8 7.9 10.0 S 5.9 6.2 SSE AVERAGE 7.1
2024-04-18 03:40 pm 10.5 8.2 10.8 S 6.6 5.6 SSE AVERAGE 7.1
2024-04-18 03:10 pm 9.2 6.2 11.4SSW 6.6 6.7 SSE AVERAGE 6.8
2024-04-18 02:40 pm 10.5 7.9 11.4 S 6.9 8.3 SSE AVERAGE 7.3
2024-04-18 02:10 pm 10.5 7.2 11.4 S 7.2 8.3 S STEEP 7.1
2024-04-18 01:40 pm 10.5 7.9 9.1SSE 6.9 7.7 S STEEP 7.1
2024-04-18 01:10 pm 9.8 6.9 10.8 S 7.2 8.3 S AVERAGE 6.9
2024-04-18 12:40 pm 10.2 8.2 10.8 S 6.2 7.1 S AVERAGE 7.1
2024-04-18 12:10 pm 11.5 9.2 12.1 S 6.9 7.1 S SWELL 7.6
2024-04-18 11:40 am 10.8 8.5 12.1 S 6.9 7.7 SSE SWELL 7.3
2024-04-18 11:10 am 11.5 9.2 10.8 S 6.9 7.1 SSE AVERAGE 7.4
2024-04-18 10:40 am 12.1 10.2 12.1 S 6.6 7.1 SSE SWELL 7.7
2024-04-18 10:10 am 11.2 9.5 10.8 S 5.9 5.6 SE AVERAGE 7.6
2024-04-18 09:40 am 10.8 8.9 10.0 S 6.2 5.0 ESE AVERAGE 7.2
2024-04-18 09:10 am 11.5 9.2 11.4 S 6.9 7.1 SSE AVERAGE 7.5
2024-04-18 08:40 am 11.5 9.5 12.1 S 6.2 7.1 SSE SWELL 7.5
2024-04-18 08:10 am 12.1 10.2 12.1 S 6.9 7.1 SSE AVERAGE 7.9
2024-04-18 07:40 am 12.1 9.8 11.4 S 7.2 6.7 SSE AVERAGE 7.6
2024-04-18 07:10 am 11.5 9.2 11.4 S 6.9 7.1 SSE AVERAGE 7.4
2024-04-18 06:40 am 11.2 8.2 12.1 S 7.9 8.3 SSE SWELL 7.3
2024-04-18 06:10 am 11.5 8.5 11.4 S 7.9 8.3 S AVERAGE 7.4
2024-04-18 05:40 am 12.5 8.9 12.1 S 8.5 8.3 S AVERAGE 7.6
2024-04-18 05:10 am 11.2 7.9 11.4 S 7.9 7.7 SSE AVERAGE 7.3

Plot of wave energy versus frequency (and period)